Retour au catalogue

BREEZE-M DEB

LostHEO
NORAD 39988·DEBRIS·🇷🇺 Russia

Lancé Mar 14, 2008 depuis Baikonur Cosmodrome

Loading…

Prochains Passages (prochaines 24 heures)

TLE

PériméSource: Space-Track

Époque: Jul 17, 2025, 02:08 UTC

1 39988U 08011DM  25198.08934632 -.00000072  00000-0  00000+0 0  9996
2 39988  49.0030  79.0366 5616967 252.3247  41.3112  2.86578779146867

Suivez BREEZE-M DEB en temps réel avec AllMySat

Download on the App Store